Regional Weather Roundup
Issued by NWS

Home | Current Version | Previous Version | Graphics & Text | Print | Product List | Glossary On
Versions: 1 2 3 4 5 6 7 8 9 10 11 12 13 14 15 16 17 18 19 20 21 22 23 24 25 26 27 28 29 30 31 32 33 34 35 36 37 38 39 40 41 42 43 44 45 46 47 48 49 50
000
ASUS45 KBOU 272107
RWRCO

WEATHER ROUNDUP FOR COLORADO
NATIONAL WEATHER SERVICE DENVER/BOULDER CO
300 PM MDT FRI MAR 27 2015

NOTE: "FAIR" INDICATES FEW OR NO CLOUDS BELOW 12000 FEET WITH NO
SIGNIFICANT WEATHER AND/OR OBSTRUCTIONS TO VISIBILITY.

COZ001>005-013-030-031-272200-
...NORTHWEST COLORADO...

CITY           SKY/WX    TMP DP  RH WIND       PRES   REMARKS
CRAIG          MOSUNNY   65  30  27 NW6       30.23F
HAYDEN         MOSUNNY   61  28  29 W14G28    30.25F
MEEKER         SUNNY     64  28  25 S9        30.24F
MOUNT WERNER   NOT AVBL
STEAMBOAT SPGS MOSUNNY   53  31  42 CALM      30.27F
WALDEN         SUNNY     54  28  37 W17G26    30.27F
$$

COZ006>008-011-272200-
...WEST CENTRAL VALLEYS...

CITY           SKY/WX    TMP DP  RH WIND       PRES   REMARKS
GRAND JUNCTION SUNNY     68  24  19 VRB3      30.20F
MONTROSE       SUNNY     67  22  18 N10       30.24F
EAGLE          MOSUNNY   64  25  22 W8G16     30.24F
RIFLE          SUNNY     68  27  21 VRB6      30.20F
DELTA          SUNNY     74  19  12 W13       30.20F
NUCLA          SUNNY     68  21  17 NW8       30.27F
$$

COZ017>023-064>068-272200-
...SOUTHWEST COLORADO...

CITY           SKY/WX    TMP DP  RH WIND       PRES   REMARKS
DURANGO        SUNNY     69  23  17 S14G24    30.21F
CORTEZ         SUNNY     69  23  17 W12G17    30.24F
PAGOSA SPRINGS SUNNY     64  14  14 SW12      30.26F
TELLURIDE      MOSUNNY   57  19  23 SW7G18    30.37F
WOLF CREEK PAS MOSUNNY   43  18  36 SW10G20   30.49S
$$

COZ009-010-012-014-032>034-037-058>063-272200-
...CENTRAL COLORADO...

CITY           SKY/WX    TMP DP  RH WIND       PRES   REMARKS
ASPEN          SUNNY     57  24  28 N13       30.28F
BUENA VISTA    MOSUNNY   64  14  14 W18G28    30.23F
COPPER MTN     MOSUNNY   41  21  45 W24G40    30.42F
BERTHOUD PASS  PTSUNNY   30  23  74 NW37G47   30.39S WCI  14
COTTONWOOD PAS SUNNY     54  10  17 W12G28    30.33S
GUNNISON       SUNNY     61  21  21 N6        30.30F
KREMMLING      CLOUDY    59  23  25 NW9       30.27F
LEADVILLE      SUNNY     47  20  34 NW15G26   30.33F
SALIDA         MOSUNNY   66  20  17 SW15G23   30.27F
SUNLIGHT       SUNNY     46  23  39 NW3       30.45F
WILKERSON PASS MOSUNNY   43  18  36 NE7       30.40F
$$

COZ069>075-272200-
...SAN LUIS VALLEY/SANGRE DE CRISTO MOUNTAINS...

CITY           SKY/WX    TMP DP  RH WIND       PRES   REMARKS
ALAMOSA        SUNNY     68  18  14 NW13      30.22F
LA VETA PASS   SUNNY     52  19  28 CALM      30.34S
SAGUACHE       SUNNY     63  21  20 NE8       30.25F
$$

COZ035-036-038>040-272200-
...NORTHERN COLORADO FRONT RANGE...

CITY           SKY/WX    TMP DP  RH WIND       PRES   REMARKS
DENVER INTL AP MOSUNNY   67  29  24 VRB3      30.10F
DMNS CITY PARK   N/A     69  29  22 E3G14     30.08F
AURORA         MOSUNNY   66  31  27 NE10      30.12S
FRONT RANGE AP MOSUNNY   66  32  28 N6        30.12
ERIE MUNI ARPT SUNNY     69  28  21 NE3       30.09F
BOULDER MUN AP CLOUDY    68  30  24 CALM      30.08F
CENTENNIAL     MOSUNNY   67  30  25 NW13G25   30.12F
BROOMFIELD     NOT AVBL
FORT COLLINS   SUNNY     70  34  26 CALM      30.08F
LONGMONT       MOSUNNY   73  31  20 SE5       30.10F
$$

COZ041-046-047-076>085-087-088-272200-
...PIKES PEAK/PALMER DIVIDE AND SOUTHERN FOOTHILLS...

CITY           SKY/WX    TMP DP  RH WIND       PRES   REMARKS
COLO. SPRINGS  MOSUNNY   65  24  21 VRB7      30.14F
A. F. ACADEMY  MOSUNNY   64  25  22 VRB3      30.14F
ELLICOTT       MOSUNNY  N/A N/A N/A N3        30.13F
FALCON         MOSUNNY   63  24  22 N5        30.18F
FORT CARSON    MOSUNNY   66  28  24 VRB5      30.12F
LIMON          SUNNY     64  28  25 W10G21    30.11F
MONUMENT HILL  MOSUNNY   61  27  27 NW10G20   30.17F
TRINIDAD       SUNNY     68  26  20 VRB6      30.11F
$$

COZ042>045-048>051-090-091-272200-
...NORTHEAST COLORADO...

CITY           SKY/WX    TMP DP  RH WIND       PRES   REMARKS
GREELEY ARPT   SUNNY     72  27  18 NW28G35   30.04F
AKRON          MOSUNNY   67  30  25 N23G32    30.05F
BURLINGTON     PTSUNNY   67  32  27 N13G24    30.06F
WRAY           PTSUNNY   69  33  26 NW18G24   30.02F
STERLING       MOSUNNY   72  34  25 NW23      30.01F
HOLYOKE        SUNNY     72  36  26 N22G28    30.01F
FORT MORGAN    MOSUNNY  N/A N/A N/A NW16G29   30.05F
$$

COZ086-089-092>099-272200-
...SOUTHEAST COLORADO...

CITY           SKY/WX    TMP DP  RH WIND       PRES   REMARKS
PUEBLO         SUNNY     71  27  19 VRB6      30.06F
LA JUNTA       SUNNY     70  30  22 VRB3      30.08F
LAMAR          SUNNY     67  32  27 VRB5      30.07F
SPRINGFIELD      N/A     68  30  24 N10G20    30.10F
$$



USA.gov is the U.S. government's official web portal to all federal, state and local government web resources and services.